SCP
0 0 0 0 0 0 0 0 0 0 0 0 0 0 0 0 0 0 0 0 0 0 0 0 0 0 0 0 0 0 0 0 0 0 0 0 0 0
0 0 0 0 0 0 0 0 0 0 0 0 0 0 0 0 0 0 0 0 0 0 0 0 0 0 0 0 0 0 0 0 0 0 0 0 0 0
0 0 0 0 0 0 0 0 0 0 0 0 0 0 0 0 0 0 0 0 0 0 0 0 0 0 0 0 0 0 0 0 0 0 0 0 0 0
0 0 0 0 0 0 0 0 0 0 0 0 0 0 0 0 0 0 0 0 0 0 0 0 0 0 0 0 0 0 0 0 0 0 0 0 0 0
0 0 0 0 0 0 0 0 0 0 0 0 0 0 0 0 0 0 0 0 0 0 0 0 0 0 0 0 0 0 0 0 0 0 0 0 0 0
0 0 0 0 0 0 0 0 0 0 0 0 0 0 0 0 0 0 0 0 0 0 0 0 0 0 0 0 0 0 0 0 0 0 0 0 0 0
0 0 0 0 0 0 0 0 0 0 0 0 0 0 0 0 0 0 0 0 0 0 0 0 0 0 0 0 0 0 0 0 0 0 0 0 0 0
0 0 0 0 0 0 0 0 0 0 0 0 0 0 0 0 0 0 0 -0 -0 0 0 0 0 0 0 0 0 0 0 0 0 0 0 0 0 0
0 0 0 0 0 0 0 0 0 0 0 0 0 0 0 0 0 0 0 0 -0 -0 0 0 0 0 0 0 0 0 0 0 0 0 0 0 0 0
0 0 0 0 0 0 0 0 0 0 0 0 0 0 0 0 0 0 0 0 0 -0 0 0 0 0 0 0 0 0 0 0 0 0 0 0 0 0
0 0 0 0 0 0 0 0 0 0 0 0 0 0 0 0 0 0 0 0 0 0 0 0 0 0 0 0 0 0 0 0 0 0 0 0 0 0
0 0 0 0 0 0 0 0 0 0 0 0 0 0 0 0 0 0 0 0 0 0 0 0 0 0 0 0 0 0 0 0 0 0 0 0 0 0
0 0 0 0 0 0 0 0 0 0 0 0 0 0 0 0 0 0 0 0 0 0 0 0 0 0 0 0 0 0 0 0 0 0 0 0 0 0
0 0 0 0 0 0 0 0 0 0 0 0 0 0 0 0 0 0 0 0 0 0 0 0 0 0 0 0 0 0 0 0 0 0 0 0 0 0
0 0 0 0 0 0 0 0 0 0 0 0 0 0 0 0 0 0 0 0 0 0 0 0 0 0 0 0 0 0 0 0 0 0 -0 -0 0 0
0 0 0 0 0 0 0 0 0 0 0 0 0 0 0 0 0 0 0 0 0 0 0 0 0 0 0 0 0 0 0 0 0 -0 -0 -0 0 0
0 0 0 0 0 0 0 0 0 0 0 0 0 0 0 0 0 0 0 0 0 0 0 0 0 0 0 0 0 0 0 0 0 -0 -0 -0 0 0
0 0 0 0 0 0 0 0 0 0 0 0 0 0 0 0 0 0 0 0 0 0 0 0 0 0 0 0 0 0 0 0 0 -0 -0 -0 0 0
0 0 0 0 0 0 0 0 0 0 0 0 0 0 0 0 0 0 0 0 0 0 0 0 0 0 0 0 0 0 0 0 0 0 -0 0 0 0
0 0 0 0 0 0 0 0 0 0 0 0 0 0 0 0 0 0 0 0 0 0 0 0 0 0 0 0 0 0 0 0 0 0 0 0 0 0
0 0 0 0 0 0 0 0 0 0 0 0 0 0 0 0 0 0 0 0 0 0 0 0 0 0 0 0 0 0 0 0 0 0 0 0 0 0
0 0 0 0 0 0 0 0 0 0 0 0 0 0 0 0 0 0 0 0 0 0 0 0 0 0 0 0 0 0 0 0 0 0 0 0 0 0
0 0 0 0 0 0 0 0 0 0 0 0 0 0 0 0 0 0 0 0 0 0 0 0 0 0 0 0 0 0 0 0 0 0 0 0 0 0
Wind_Speed
2 2 1 2 1 1 2 2 2 4 5 3 2 2 3 4 8 6 5 11 13 13 13 11 10 9 9 9 9 9 9 10 10 11 11 12 12 12
2 2 2 2 2 2 2 2 3 4 6 3 3 4 5 6 10 6 6 13 13 13 12 11 11 10 10 9 8 9 9 10 11 12 12 12 12 12
2 2 3 3 2 2 2 3 3 4 6 6 4 5 6 6 7 6 6 6 6 12 13 12 11 10 9 9 9 10 9 10 11 12 12 12 12 12
3 3 4 3 3 3 3 4 4 4 5 7 6 5 6 6 6 7 7 6 5 10 11 11 10 10 9 9 10 10 10 10 10 11 11 11 12 12
4 4 5 4 4 4 4 4 4 4 4 5 6 5 5 5 6 7 6 5 6 7 9 10 10 10 10 10 10 10 10 10 10 11 11 11 11 12
5 5 5 5 6 5 5 5 5 5 5 5 6 5 5 5 4 5 6 4 5 6 7 8 9 10 10 10 9 10 9 9 10 11 11 10 10 11
5 5 6 7 9 7 6 5 5 5 5 5 6 5 5 4 4 4 7 6 5 4 4 4 5 4 5 8 8 9 10 10 10 11 11 10 10 11
4 4 5 6 8 10 11 10 9 7 6 5 5 6 6 6 5 5 6 6 6 2 4 6 4 5 4 4 8 10 10 10 10 11 11 11 10 10
4 4 4 5 7 5 8 11 11 13 13 8 7 7 7 6 6 7 7 7 7 5 5 7 4 6 5 6 10 11 10 10 10 10 9 10 11 11
4 4 5 5 6 7 6 7 7 7 9 7 6 7 7 6 7 7 8 7 7 5 4 6 5 5 6 5 9 10 10 10 10 10 10 10 10 11
4 5 5 5 10 12 7 6 7 7 9 12 12 11 12 12 9 5 5 5 7 5 3 4 5 6 5 5 6 8 9 10 10 10 10 10 10 10
4 5 8 9 11 11 6 5 7 7 6 6 8 9 7 8 10 5 4 5 6 5 3 3 4 4 5 3 3 3 4 7 9 10 10 10 10 6
4 3 4 10 11 11 10 5 8 8 5 5 5 5 4 4 4 4 4 5 6 6 4 3 4 4 5 5 4 3 4 4 4 5 7 9 9 7
4 3 5 10 11 11 8 8 11 9 3 4 4 4 4 4 4 4 5 5 6 7 6 5 4 4 5 5 5 3 3 3 3 4 3 6 8 9
4 7 9 9 9 6 8 10 8 3 3 4 4 4 4 4 4 4 4 5 5 5 5 5 5 4 4 5 5 5 4 4 3 3 3 4 4 4
4 6 8 8 6 6 6 5 3 3 4 4 4 4 4 4 4 4 4 4 4 4 4 4 4 4 4 5 5 5 4 4 3 3 3 4 4 4
3 2 2 2 3 2 3 3 3 3 4 3 3 4 4 4 4 4 4 3 4 4 4 3 3 3 4 4 5 5 4 4 4 3 3 4 4 3
3 2 2 3 3 3 4 4 3 4 4 4 4 4 4 4 5 4 4 3 4 4 4 3 3 3 3 3 4 5 4 4 4 4 3 4 5 4
3 2 3 3 3 3 3 4 4 4 4 4 4 4 4 4 4 4 4 4 4 4 4 3 3 2 3 5 4 3 4 4 4 4 3 3 4 5
2 2 3 3 3 3 3 4 4 4 4 4 4 4 3 4 4 4 4 4 4 4 4 3 3 3 4 5 4 4 5 5 4 4 4 3 4 5
3 3 3 3 3 3 3 4 4 4 4 4 4 4 4 3 4 4 4 6 5 4 4 4 4 5 3 2 3 4 4 5 6 4 4 3 4 4
3 4 4 4 3 3 3 4 4 4 4 4 4 4 4 3 4 5 4 4 4 4 4 4 3 3 2 3 4 5 5 4 5 7 7 6 4 3
4 4 4 4 4 3 3 4 4 4 4 4 4 4 4 4 4 4 4 4 4 4 4 4 3 3 3 3 3 4 5 5 4 4 4 6 7 8
Wind_Direction
258 251 240 258 255 249 244 238 254 283 288 283 291 298 305 307 308 306 298 309 312 309 308 308 305 300 297 294 292 294 289 282 277 271 265 262 261 256
251 243 241 248 252 251 246 248 242 254 274 280 284 298 305 305 307 306 299 309 308 310 309 308 303 300 297 294 294 292 291 286 276 270 266 261 261 260
257 244 247 246 246 249 247 248 250 246 266 283 284 295 296 298 303 299 294 290 292 302 304 301 299 296 293 294 294 293 290 286 281 274 269 269 260 258
252 250 255 252 248 250 247 250 254 249 256 279 289 289 287 291 294 297 297 296 287 293 300 300 300 295 292 290 290 290 288 286 281 278 275 274 267 259
246 245 251 248 253 252 250 251 255 262 254 267 282 283 283 287 295 295 291 287 292 295 301 300 295 295 292 287 286 284 285 283 278 277 275 274 271 266
247 245 245 241 245 247 251 251 254 259 257 262 273 279 280 281 283 295 298 292 295 298 292 293 291 292 291 287 283 282 280 280 279 276 272 269 270 269
253 249 249 254 256 255 256 250 250 252 256 264 272 280 285 289 286 288 292 297 291 278 282 288 283 271 272 277 275 275 275 276 276 275 271 266 264 269
261 259 258 266 273 278 282 279 272 265 265 266 274 276 281 280 285 287 293 296 295 279 289 290 282 274 266 257 273 277 273 275 277 275 269 266 265 265
262 265 271 272 282 274 279 282 280 279 276 273 273 271 273 272 278 282 282 281 281 285 289 287 280 273 271 271 277 276 274 274 273 274 273 272 270 266
259 255 260 266 268 270 262 265 262 266 269 266 260 264 270 269 263 271 278 282 279 276 271 278 284 281 285 274 270 268 273 275 274 273 274 272 273 271
267 265 266 261 275 282 278 273 274 273 279 275 275 278 283 284 282 279 281 286 289 286 268 268 284 294 285 275 264 270 276 275 274 276 276 275 276 275
275 271 280 284 287 293 285 272 275 278 278 280 279 280 279 279 282 269 266 273 284 286 267 270 283 303 295 277 266 270 274 275 278 277 276 276 278 277
284 281 280 292 294 296 296 281 283 291 278 277 276 276 273 265 262 260 256 256 266 269 273 283 275 280 275 289 291 280 276 280 276 272 273 277 278 276
289 288 286 295 296 299 301 300 300 303 292 286 284 284 284 284 282 275 268 264 262 265 264 265 265 268 273 280 285 288 281 277 279 280 274 279 279 279
292 298 302 302 307 308 309 310 311 305 291 283 284 286 284 282 286 288 286 282 280 276 271 266 267 270 263 265 275 280 290 289 271 266 272 272 272 276
306 307 312 311 311 312 314 316 315 302 293 283 284 287 290 288 288 293 292 297 293 293 292 283 274 266 265 267 267 275 274 270 277 275 278 279 277 276
314 321 330 333 332 325 318 314 312 314 310 301 293 292 292 295 294 294 290 293 287 290 300 306 303 288 274 272 271 272 276 276 273 276 280 282 281 280
338 338 324 322 320 319 317 318 317 313 310 305 299 295 293 294 294 296 293 288 288 289 290 296 309 314 311 302 270 267 275 279 285 280 270 271 280 281
346 330 318 314 313 312 310 309 308 309 308 303 299 297 294 293 291 292 293 294 290 288 286 285 286 282 288 294 301 287 275 283 287 287 281 273 273 281
337 318 309 307 306 304 303 303 304 307 306 303 301 299 295 292 293 291 287 285 287 289 289 287 278 266 259 271 283 299 295 279 277 282 287 291 287 289
320 312 304 300 298 297 297 298 298 298 300 300 297 297 295 291 289 289 288 289 290 285 286 289 286 295 286 279 282 289 297 292 285 276 278 285 289 292
312 309 305 301 298 296 295 294 294 294 297 294 294 296 295 291 287 289 289 290 288 285 286 289 296 301 284 264 272 285 296 305 308 304 288 272 267 266
306 303 300 298 294 293 290 291 291 291 290 289 291 292 294 293 288 286 288 287 288 291 294 296 303 300 285 272 272 283 293 300 305 309 306 305 293 281